CZ-3B DEB, 42473

Orbit data source: Space-Track

CZ-3B DEB, 42473 is space debris in HEO originally from a launch on Mon, 19 Dec 2011 UTC launched from the Xichang Space Center, China (XSC). Debris objects in space refer to the collection of defunct objects orbiting the Earth. Examples of debris include non-operational satellites, rocket bodies, and fragments generated from explosions, collisions, or faulty payload assembly.

Loading next visibility...
CZ-3B DEB details
Identifier
42473, 2011-077AN
Orbit
HEO
Last TLE update3 months ago
Origin
Flag of CNCASC (CN / PRC)
ManufacturerCALT
MissionSpacecraft
Bus & MotorUnknown
MassUnknown
Launch date (UTC)
2011-12-19 (13 years ago)
Launch vehicleUnknown
Launch site
Xichang Space Center, China (XSC)
Object type
Payload
Rocket body
Debris
Shape & HBRUnknown
Radar Cross SectionMedium (>0.1 m² and <1 m²)

Expand to show TLE details & history

TLE from 3 months ago
0 CZ-3B DEB
1 42473U 11077AN  24303.72577238  .00000018  00000-0  00000-0 0  9998
2 42473  21.7510 176.2071 7253014 268.3783  15.4578  1.69232462 53015
Epoch: 2024-10-29T17:25Z
Definitive object data (Epoch: 2024-10-29T17:25:06.733Z)
Latitude0.00034°
Longitude-123.38417°
Altitude8,087.237 km
Speed6.458 km/s
True Right ascension11h 45m 42s
True Declination0° 00' 01"
Sunlit
Object was in daylight at TLE epoch
Visualization TLE readout
Latitude-12.92752°
Longitude-177.04345°
Altitude2,071.378 km
Speed8.997 km/s
Apparent Right ascension06h 19m 33s
Apparent Declination-30° 00' 09"
Sunlit
Object is in daylight
Visualization observer readout
Local Sidereal Time14:52:14
Azimuth266.628° W
Elevation-46.998°
Doppler factor1
Orbital elements
Apogee altitude44,947.055 km
Perigee altitude1,793.744 km
Semi-major axis29,748.536 km
Eccentricity0.7253014
Inclination21.751°
RAAN176.2071°
Arg. of periapsis268.3783°
True anomaly91.68183°
Mean anomaly15.4578°
Eccentric anomaly44.6764°
Mean motion0.423 °/min
BSTARUnknown
Orbital period851.06 mins
Loading maneuver chart data...
Loading historical data...
Loading historical data...
Loading historical data...
Loading historical data...
Loading historical data...
Loading historical data...
Loading historical data...

CZ-3B DEB Visibility forecast

Observer location: undefined°, undefined

Span
Click to sort rows by Start time (UTC) header in descending order
Start Az.
Max El. time (UTC)
Max El. Az.
Max El.
End time (UTC)
End Az.
590 mins2025-01-24 14:03:11.801Z247.142° WSW2025-01-24 16:10:11.801Z224.314° SW41.374°2025-01-24 23:53:11.801Z272.271° WNW
51 mins2025-01-25 12:45:11.801Z83.614° E2025-01-25 13:36:11.801Z89.253° E13.756°2025-01-25 13:36:11.801Z89.253° E
|